Powrót do katalogu

FENGYUN 1C DEB

AktywnyPO
NORAD 29871·DEBRIS·🇨🇳 China

Wystrzelony May 10, 1999 z Taiyuan Satellite Launch Center

Loading…

Następne Przeloty (najbliższe 24 godziny)

TLE

ŚwieżeSource: Space-Track

Epoka: Sep 14, 2026, 09:37 UTC

1 29871U 99025FR  26257.40123175  .00002027  00000-0  59395-3 0  9992
2 29871  99.0000 230.7197 0057342  11.0532 145.1076 14.44146644 26784

Śledź FENGYUN 1C DEB w czasie rzeczywistym z AllMySat

Download on the App Store